Regional Weather Roundup
Issued by NWS Charleston, SC

Current Version | Previous Version | Text Only | Print | Product List | Glossary Off
Versions: 1 2 3 4 5 6 7 8 9 10 11 12 13 14 15 16 17 18 19 20 21 22 23 24 25 26 27 28 29 30 31 32 33 34 35 36 37 38 39 40 41 42 43 44 45 46 47 48 49 50

000
ASUS42 KCHS 210710
RWRCHS

REGIONAL WEATHER ROUNDUP
NATIONAL WEATHER SERVICE CHARLESTON SC
300 AM EDT MON APR 21 2014

NOTE: "FAIR" INDICATES FEW OR NO CLOUDS BELOW 12,000 FEET WITH NO
SIGNIFICANT WEATHER AND/OR OBSTRUCTIONS TO VISIBILITY.

NOT ALL STATIONS ARE QUALITY CONTROLLED BY THE NATIONAL
WEATHER SERVICE. USE DATA WITH CAUTION...ESPECIALLY
DEWPOINT OBSERVATIONS.

SCZ027-030-031-034>040-042>050-210800-
...SOUTH CAROLINA...

CITY           SKY/WX    TMP DP  RH WIND       PRES   REMARKS
N CHARLESTON   MOCLDY    61  47  59 N12       30.08S
WATERFRONT PRK   N/A     61 N/A N/A N14         N/A
FORT JOHNSON   NOT AVBL
MOUNT PLEASANT CLOUDY   N/A N/A N/A N7        30.06F
JOHNS ISLAND   PTSUNNY   61  52  72 N10       30.07F
PINOPOLIS        N/A     61  48  63 NE13      30.01F
MONCKS CORNER  FAIR      59  50  72 N8        30.08F
SUMMERVILLE    NOT AVBL
BEAUFORT MCAS  CLEAR     60  50  69 E8        30.07F
BEAUFORT ARPT  FAIR      61  54  77 N10       30.07F
HILTON HEAD IS NOT AVBL
GEORGETOWN     NOT AVBL
WALTERBORO     CLOUDY    59  50  72 NE6       30.09F
ORANGEBURG     CLEAR     57  47  69 NE8       30.11F
BARNWELL       FAIR      52  46  82 NW3       30.12F
AIKEN          FAIR      54  45  71 N3        30.17S
MANNING        CLOUDY    59  48  67 N5        30.11S
KINGSTREE      NOT AVBL
COLUMBIA       CLEAR     57  44  62 N5        30.12F
SUMTER         CLEAR     53  45  74 N8        30.10F
FLORENCE       MOCLDY    56  40  55 NE7       30.11F
MYRTLE BEACH   CLEAR     54  43  66 N15       30.06F
N MYRTLE BEACH CLEAR     53  43  68 N12       30.05F

$$

GAZ063-065-086>088-099>101-113>116-118-119-134-136>141-150-210800-
...GEORGIA...

CITY           SKY/WX    TMP DP  RH WIND       PRES   REMARKS
SAVANNAH ARPT  MOCLDY    57  49  74 N3        30.08F
HUNTER AAF     PTCLDY    58  51  75 VRB1      30.06F
FORT STEWART   CLEAR     54  52  94 CALM      30.08F
STATESBORO     NOT AVBL
SYLVANIA       SUNNY     58  48  70 N3        30.12S
CLAXTON        FAIR     N/A N/A N/A CALM      30.10F
THOMSON        CLEAR     45  45 100 CALM      30.19F
AUGUSTA-BUSH   CLEAR     50  44  80 CALM      30.14S
AUGUSTA-DANIEL CLEAR     55  43  63 N8        30.15R
SWAINSBORO     FAIR      50  50 100 N3        30.13F
VIDALIA        CLEAR     55  50  82 N5        30.12S
ALMA           CLEAR     54  50  86 CALM      30.10F
WAYCROSS       NOT AVBL
JESUP          FAIR      55  52  88 N3        30.09F
BRUNSWICK      CLEAR     54  54 100 CALM      30.09S
SAINT SIMONS   CLEAR     56  52  86 CALM      30.08F

$$

SCZ027-028-034-036>038-045-046-048>050-GAZ119-141-210800-
...LAKE AND SUPPLEMENTAL COASTAL OBSERVATIONS...

STATION/POSITION TIME  TEMP    WIND        PRES    WAVE   SWELL
                       AIR SEA DIR/SP/G            HT/PER HT/PER/DIR
                 (UTC) (F)     (DEG/KT/KT) (MB)    (FT/S) (FT/S/D)
UPR LAKE MARION  NOT AVBL
WINYAH BAY       0600   58     360/ 10     1018.0S
LAKE MURRAY      0600   55     340/  1/  4 1020.3S
ACE BASIN NERRS  0600   60      20/  4     1019.0S
FORT PULASKI     0700   62 58   20/ 11/ 13 1018.4F
SAPELO ISLAND    0600   59     340/  5     1018.0S

$$

ANZ835-935-AMZ111-154-330-350-352-354-374-450-454-472-210800-
...C-MAN AND BUOY OBSERVATIONS...

STATION/POSITION TIME  TEMP    WIND        PRES    WAVE   SWELL
                       AIR SEA DIR/SP/G            HT/PER HT/PER/DIR
                 (UTC) (F)     (DEG/KT/KT) (MB)    (FT/S) (FT/S/D)
FOLLY BEACH CMAN 0600   60      10/ 13/ 16 1018.7F
BUOY 41004       NOT AVBL
BUOY 41008       0700   63 63   40/ 19/ 21 1017.4F   6/ 7   3/100/12
5E ST. MARYS GA  0700      63                N/A     5/ 6   2/ 80/11
FRYING PAN BUOY  0700   59 68   30/ 27/ 33 1014.3F  10/ 8   3/ 70/11
BUOY 41025       0700   59 75  360/ 33/ 43 1012.3F  17/11  11/ 60/11
CAPE LOOKOUT NC  0600   52     360/ 24/ 30 1016.4F
BUOY 41002       NOT AVBL
BUOY 41010       0700   71 75  340/ 16/ 17 1013.6F   8/ 8   7/ 20/ 8
BUOY 41012       NOT AVBL
ST AUGUSTINE FL  0700   60     320/  6/  8 1018.4F
CAPERS NEARSHORE NOT AVBL
FRIPP NEARSHORE  0600   61      30/ 19/ 21   N/A


$$


USA.gov is the U.S. government's official web portal to all federal, state and local government web resources and services.